Time,TemperatureF,DewpointF,PressureIn,WindDirection,WindDirectionDegrees,WindSpeedMPH,WindSpeedGustMPH,Humidity,HourlyPrecipIn,Conditions,Clouds,dailyrainin,SoftwareType,DateUTC
2013-05-01 00:01:00,35.8,30.2,30.18,NNE,22,0.0,0.0,80,0.00,RA,,0.00,WeatherDisplay:10.37,2013-05-01 07:01:00,
2013-05-01 00:06:00,35.4,29.9,30.19,NNE,22,0.0,0.0,80,0.00,RA,,0.00,WeatherDisplay:10.37,2013-05-01 07:06:00,
2013-05-01 00:11:00,35.4,29.9,30.19,NNE,22,0.0,0.0,80,0.00,CLR,,0.00,WeatherDisplay:10.37,2013-05-01 07:11:00,
2013-05-01 00:16:00,35.2,30.0,30.19,NNE,22,0.0,0.0,81,0.00,CLR,,0.00,WeatherDisplay:10.37,2013-05-01 07:16:00,
2013-05-01 00:21:00,35.2,30.0,30.19,NNE,22,0.0,0.0,81,0.00,CLR,,0.00,WeatherDisplay:10.37,2013-05-01 07:21:00,
2013-05-01 00:26:00,34.9,29.6,30.19,NNE,22,0.0,0.0,81,0.00,CLR,,0.00,WeatherDisplay:10.37,2013-05-01 07:26:00,
2013-05-01 00:31:00,34.9,29.6,30.19,NNE,22,0.0,0.0,81,0.00,CLR,,0.00,WeatherDisplay:10.37,2013-05-01 07:31:00,
2013-05-01 00:36:00,34.7,29.5,30.20,NNE,22,0.0,0.0,81,0.00,CLR,,0.00,WeatherDisplay:10.37,2013-05-01 07:36:00,
2013-05-01 00:41:00,34.3,29.4,30.20,NNE,22,0.0,0.0,82,0.00,CLR,,0.00,WeatherDisplay:10.37,2013-05-01 07:41:00,
2013-05-01 00:46:00,34.3,29.4,30.21,NNE,22,0.0,0.0,82,0.00,CLR,,0.00,WeatherDisplay:10.37,2013-05-01 07:46:00,
2013-05-01 00:51:00,34.3,29.4,30.21,NNE,22,0.0,0.0,82,0.00,CLR,,0.00,WeatherDisplay:10.37,2013-05-01 07:51:00,
2013-05-01 00:56:00,34.3,29.4,30.21,NNE,22,0.0,0.0,82,0.00,CLR,,0.00,WeatherDisplay:10.37,2013-05-01 07:56:00,
2013-05-01 01:01:00,34.2,29.5,30.21,NNE,22,0.0,0.0,83,0.00,CLR,,0.00,WeatherDisplay:10.37,2013-05-01 08:01:00,
2013-05-01 01:06:00,34.2,29.5,30.21,NNE,22,0.0,0.0,83,0.00,CLR,,0.00,WeatherDisplay:10.37,2013-05-01 08:06:00,
2013-05-01 01:11:00,33.8,29.2,30.21,NNE,22,0.0,0.0,83,0.00,CLR,,0.00,WeatherDisplay:10.37,2013-05-01 08:11:00,
2013-05-01 01:16:00,33.6,29.0,30.21,NNE,22,0.0,0.0,83,0.00,CLR,,0.00,WeatherDisplay:10.37,2013-05-01 08:16:00,
2013-05-01 01:21:00,33.6,29.0,30.21,NNE,22,0.0,0.0,83,0.00,CLR,,0.00,WeatherDisplay:10.37,2013-05-01 08:21:00,
2013-05-01 01:26:00,33.4,28.8,30.21,NNE,22,0.0,0.0,83,0.00,CLR,,0.00,WeatherDisplay:10.37,2013-05-01 08:26:00,
2013-05-01 01:31:00,33.4,28.8,30.22,NNE,22,0.0,0.0,83,0.00,CLR,,0.00,WeatherDisplay:10.37,2013-05-01 08:31:00,
2013-05-01 01:36:00,33.3,28.7,30.22,NNE,22,0.0,0.0,83,0.00,CLR,,0.00,WeatherDisplay:10.37,2013-05-01 08:36:00,
2013-05-01 01:41:00,35.4,31.1,30.22,NNE,22,0.0,0.0,84,0.00,CLR,,0.00,WeatherDisplay:10.37,2013-05-01 08:41:00,
2013-05-01 01:46:00,35.2,30.9,30.22,NNE,22,0.0,0.0,84,0.00,CLR,,0.00,WeatherDisplay:10.37,2013-05-01 08:46:00,
2013-05-01 01:51:00,35.2,30.9,30.23,NNE,22,0.0,0.0,84,0.00,CLR,,0.00,WeatherDisplay:10.37,2013-05-01 08:51:00,
2013-05-01 01:56:00,35.1,30.7,30.23,NNE,22,0.0,0.0,84,0.00,CLR,,0.00,WeatherDisplay:10.37,2013-05-01 08:56:00,
2013-05-01 02:01:00,34.9,30.5,30.23,NNE,22,0.0,0.0,84,0.00,CLR,,0.00,WeatherDisplay:10.37,2013-05-01 09:01:00,
2013-05-01 02:06:00,34.9,30.5,30.23,NNE,22,0.0,0.0,84,0.00,CLR,,0.00,WeatherDisplay:10.37,2013-05-01 09:06:00,
2013-05-01 02:11:00,34.9,30.8,30.23,NNE,22,0.0,0.0,85,0.00,CLR,,0.00,WeatherDisplay:10.37,2013-05-01 09:11:00,
2013-05-01 02:16:00,34.7,30.7,30.23,NNE,22,0.0,0.0,85,0.00,CLR,,0.00,WeatherDisplay:10.37,2013-05-01 09:16:00,
2013-05-01 02:21:00,34.5,30.5,30.23,NNE,22,0.0,0.0,85,0.00,CLR,,0.00,WeatherDisplay:10.37,2013-05-01 09:21:00,
2013-05-01 02:26:00,34.5,30.5,30.23,NNE,22,0.0,0.0,85,0.00,,,0.00,WeatherDisplay:10.37,2013-05-01 09:26:00,
2013-05-01 02:31:00,34.3,34.1,30.23,NNE,22,0.0,0.0,99,0.00,,,0.00,WeatherDisplay:10.37,2013-05-01 09:31:00,
2013-05-01 02:36:00,34.3,34.1,30.24,NNE,22,0.0,0.0,99,0.00,,,0.00,WeatherDisplay:10.37,2013-05-01 09:36:00,
2013-05-01 02:41:00,34.3,34.1,30.24,NNE,22,0.0,0.0,99,0.00,,,0.00,WeatherDisplay:10.37,2013-05-01 09:41:00,
2013-05-01 02:46:00,34.3,34.1,30.23,NNE,22,0.0,0.0,99,0.00,,,0.00,WeatherDisplay:10.37,2013-05-01 09:46:00,
2013-05-01 02:51:00,34.3,34.1,30.23,NNE,22,0.0,0.0,99,0.00,,,0.00,WeatherDisplay:10.37,2013-05-01 09:51:00,
2013-05-01 02:56:00,34.3,34.1,30.24,NNE,22,0.0,0.0,99,0.00,,,0.00,WeatherDisplay:10.37,2013-05-01 09:56:00,
2013-05-01 03:01:00,34.2,33.9,30.24,NNE,22,0.0,0.0,99,0.00,,,0.00,WeatherDisplay:10.37,2013-05-01 10:01:00,
2013-05-01 03:06:00,34.2,33.9,30.24,NNE,22,0.0,0.0,99,0.00,,,0.00,WeatherDisplay:10.37,2013-05-01 10:06:00,
2013-05-01 03:11:00,34.0,33.7,30.24,NNE,22,0.0,0.0,99,0.00,,,0.00,WeatherDisplay:10.37,2013-05-01 10:11:00,
2013-05-01 03:16:00,33.8,33.5,30.24,NNE,22,0.0,0.0,99,0.00,,,0.00,WeatherDisplay:10.37,2013-05-01 10:16:00,
2013-05-01 03:21:00,33.6,33.4,30.24,NNE,22,0.0,0.0,99,0.00,,,0.00,WeatherDisplay:10.37,2013-05-01 10:21:00,
2013-05-01 03:26:00,33.6,33.4,30.24,NNE,22,0.0,0.0,99,0.00,,,0.00,WeatherDisplay:10.37,2013-05-01 10:26:00,
2013-05-01 03:31:00,33.6,33.4,30.23,NNE,22,0.0,0.0,99,0.00,,,0.00,WeatherDisplay:10.37,2013-05-01 10:31:00,
2013-05-01 03:36:00,33.6,33.4,30.23,NNE,22,0.0,0.0,99,0.00,,,0.00,WeatherDisplay:10.37,2013-05-01 10:36:00,
2013-05-01 03:41:00,33.4,33.2,30.24,NNE,22,0.0,0.0,99,0.00,,,0.00,WeatherDisplay:10.37,2013-05-01 10:41:00,
2013-05-01 03:46:00,33.4,33.2,30.24,NNE,22,0.0,0.0,99,0.00,,,0.00,WeatherDisplay:10.37,2013-05-01 10:46:00,
2013-05-01 03:51:00,33.4,33.2,30.24,NNE,22,0.0,0.0,99,0.00,,,0.00,WeatherDisplay:10.37,2013-05-01 10:51:00,
2013-05-01 03:56:00,33.3,33.0,30.24,NNE,22,0.0,0.0,99,0.00,,,0.00,WeatherDisplay:10.37,2013-05-01 10:56:00,
2013-05-01 04:01:00,33.3,33.0,30.24,NNE,22,0.0,0.0,99,0.00,,,0.00,WeatherDisplay:10.37,2013-05-01 11:01:00,
2013-05-01 04:06:00,33.1,32.8,30.24,NNE,22,0.0,0.0,99,0.00,,,0.00,WeatherDisplay:10.37,2013-05-01 11:06:00,
2013-05-01 04:11:00,33.1,32.8,30.24,NNE,22,0.0,0.0,99,0.00,,,0.00,WeatherDisplay:10.37,2013-05-01 11:11:00,
2013-05-01 04:16:00,33.1,32.8,30.25,NNE,22,0.0,0.0,99,0.00,,,0.00,WeatherDisplay:10.37,2013-05-01 11:16:00,
2013-05-01 04:21:00,33.1,32.8,30.25,NNE,22,0.0,0.0,99,0.00,,,0.00,WeatherDisplay:10.37,2013-05-01 11:21:00,
2013-05-01 04:26:00,32.9,32.7,30.25,NNE,22,0.0,0.0,99,0.00,,,0.00,WeatherDisplay:10.37,2013-05-01 11:26:00,
2013-05-01 04:31:00,32.9,32.7,30.26,NNE,22,0.0,0.0,99,0.00,,,0.00,WeatherDisplay:10.37,2013-05-01 11:31:00,
2013-05-01 04:36:00,32.7,32.5,30.26,NNE,22,0.0,0.0,99,0.00,,,0.00,WeatherDisplay:10.37,2013-05-01 11:36:00,
2013-05-01 04:41:00,32.7,32.5,30.26,NNE,22,0.0,0.0,99,0.00,,,0.00,WeatherDisplay:10.37,2013-05-01 11:41:00,
2013-05-01 04:46:00,32.7,32.5,30.26,NNE,22,0.0,0.0,99,0.00,,,0.00,WeatherDisplay:10.37,2013-05-01 11:46:00,
2013-05-01 04:51:00,32.7,32.5,30.26,NNE,22,0.0,0.0,99,0.00,,,0.00,WeatherDisplay:10.37,2013-05-01 11:51:00,
2013-05-01 04:56:00,32.5,32.3,30.26,NNE,22,0.0,0.0,99,0.00,,,0.00,WeatherDisplay:10.37,2013-05-01 11:56:00,
2013-05-01 05:01:00,32.5,32.3,30.26,NNE,22,0.0,0.0,99,0.00,,,0.00,WeatherDisplay:10.37,2013-05-01 12:01:00,
2013-05-01 05:06:00,32.5,32.3,30.26,NNE,22,0.0,0.0,99,0.00,,,0.00,WeatherDisplay:10.37,2013-05-01 12:06:00,
2013-05-01 05:11:00,32.5,32.3,30.26,NNE,22,0.0,0.0,99,0.00,,,0.00,WeatherDisplay:10.37,2013-05-01 12:11:00,
2013-05-01 05:16:00,32.4,32.1,30.26,NNE,22,0.0,0.0,99,0.00,,,0.00,WeatherDisplay:10.37,2013-05-01 12:16:00,
2013-05-01 05:21:00,32.4,32.1,30.26,NNE,22,0.0,0.0,99,0.00,,,0.00,WeatherDisplay:10.37,2013-05-01 12:21:00,
2013-05-01 05:26:00,32.4,32.1,30.27,NNE,22,0.0,0.0,99,0.00,,,0.00,WeatherDisplay:10.37,2013-05-01 12:26:00,
2013-05-01 05:31:00,32.4,32.1,30.27,NNE,22,0.0,0.0,99,0.00,,,0.00,WeatherDisplay:10.37,2013-05-01 12:31:00,
2013-05-01 05:36:00,32.4,32.1,30.26,NNE,22,0.0,0.0,99,0.00,,,0.00,WeatherDisplay:10.37,2013-05-01 12:36:00,
2013-05-01 05:41:00,32.2,31.9,30.26,NNE,22,0.0,0.0,99,0.00,,,0.00,WeatherDisplay:10.37,2013-05-01 12:41:00,
2013-05-01 05:46:00,32.2,31.9,30.27,NNE,22,0.0,0.0,99,0.00,,,0.00,WeatherDisplay:10.37,2013-05-01 12:46:00,
2013-05-01 05:51:00,32.2,31.9,30.27,NNE,22,0.0,0.0,99,0.00,,,0.00,WeatherDisplay:10.37,2013-05-01 12:51:00,
2013-05-01 05:56:00,32.2,31.9,30.27,NNE,22,0.0,0.0,99,0.00,,,0.00,WeatherDisplay:10.37,2013-05-01 12:56:00,
2013-05-01 06:01:00,32.2,31.9,30.27,NNE,22,0.0,0.0,99,0.00,,,0.00,WeatherDisplay:10.37,2013-05-01 13:01:00,
2013-05-01 06:06:00,32.2,31.9,30.27,NNE,22,0.0,0.0,99,0.00,,,0.00,WeatherDisplay:10.37,2013-05-01 13:06:00,
2013-05-01 06:11:00,32.2,31.9,30.27,NNE,22,0.0,0.0,99,0.00,,,0.00,WeatherDisplay:10.37,2013-05-01 13:11:00,
2013-05-01 06:16:00,32.2,31.9,30.28,NNE,22,0.0,0.0,99,0.00,,,0.00,WeatherDisplay:10.37,2013-05-01 13:16:00,
2013-05-01 06:21:00,32.2,31.9,30.28,NNE,22,0.0,0.0,99,0.00,,,0.00,WeatherDisplay:10.37,2013-05-01 13:21:00,
2013-05-01 06:26:00,32.4,32.1,30.28,NNE,22,0.0,0.0,99,0.00,,,0.00,WeatherDisplay:10.37,2013-05-01 13:26:00,
2013-05-01 06:31:00,32.4,32.1,30.27,NNE,22,0.0,0.0,99,0.00,,,0.00,WeatherDisplay:10.37,2013-05-01 13:31:00,
2013-05-01 06:36:00,32.5,32.3,30.28,NNE,22,0.0,0.0,99,0.00,,,0.00,WeatherDisplay:10.37,2013-05-01 13:36:00,
2013-05-01 06:41:00,32.5,32.3,30.28,NNE,22,0.0,0.0,99,0.00,,,0.00,WeatherDisplay:10.37,2013-05-01 13:41:00,
2013-05-01 06:46:00,32.7,32.5,30.29,NNE,22,0.0,0.0,99,0.00,,,0.00,WeatherDisplay:10.37,2013-05-01 13:46:00,
2013-05-01 06:51:00,32.7,32.5,30.29,NNE,22,0.0,0.0,99,0.00,,,0.00,WeatherDisplay:10.37,2013-05-01 13:51:00,
2013-05-01 06:56:00,32.9,32.7,30.29,NNE,22,0.0,0.0,99,0.00,,,0.00,WeatherDisplay:10.37,2013-05-01 13:56:00,
2013-05-01 07:01:00,33.1,32.8,30.29,NNE,22,0.0,0.0,99,0.00,,,0.00,WeatherDisplay:10.37,2013-05-01 14:01:00,
2013-05-01 07:06:00,33.1,32.8,30.29,NNE,22,0.0,0.0,99,0.00,,,0.00,WeatherDisplay:10.37,2013-05-01 14:06:00,
2013-05-01 07:11:00,33.3,33.0,30.30,NNE,22,0.0,0.0,99,0.00,,,0.00,WeatherDisplay:10.37,2013-05-01 14:11:00,
2013-05-01 07:16:00,33.4,33.2,30.29,NNE,22,0.0,0.0,99,0.00,,,0.00,WeatherDisplay:10.37,2013-05-01 14:16:00,
2013-05-01 07:21:00,33.6,33.4,30.30,NNE,22,0.0,0.0,99,0.00,,,0.00,WeatherDisplay:10.37,2013-05-01 14:21:00,
2013-05-01 07:26:00,33.8,33.5,30.30,NNE,22,0.0,0.0,99,0.00,,,0.00,WeatherDisplay:10.37,2013-05-01 14:26:00,
2013-05-01 07:31:00,34.2,33.9,30.30,NNE,22,0.0,0.0,99,0.00,,,0.00,WeatherDisplay:10.37,2013-05-01 14:31:00,
2013-05-01 07:36:00,34.3,34.1,30.30,NNE,22,0.0,0.0,99,0.00,,,0.00,WeatherDisplay:10.37,2013-05-01 14:36:00,
2013-05-01 07:41:00,34.3,34.1,30.30,NNE,22,0.0,0.0,99,0.00,,,0.00,WeatherDisplay:10.37,2013-05-01 14:41:00,
2013-05-01 07:46:00,34.9,34.6,30.30,NNE,22,0.0,0.0,99,0.00,,,0.00,WeatherDisplay:10.37,2013-05-01 14:46:00,
2013-05-01 07:51:00,35.2,35.0,30.30,NNE,22,0.0,0.0,99,0.00,,,0.00,WeatherDisplay:10.37,2013-05-01 14:51:00,
2013-05-01 07:56:00,35.4,35.2,30.30,NNE,22,0.0,0.0,99,0.00,,,0.00,WeatherDisplay:10.37,2013-05-01 14:56:00,
2013-05-01 08:01:00,36.1,35.9,30.30,NNE,22,0.0,0.0,99,0.00,,,0.00,WeatherDisplay:10.37,2013-05-01 15:01:00,
2013-05-01 08:06:00,36.5,36.2,30.30,NNE,22,0.0,0.0,99,0.00,,,0.00,WeatherDisplay:10.37,2013-05-01 15:06:00,
2013-05-01 08:11:00,37.2,37.0,30.30,NNE,22,0.0,0.0,99,0.00,,,0.00,WeatherDisplay:10.37,2013-05-01 15:11:00,
2013-05-01 08:16:00,37.8,37.5,30.30,NNE,22,0.0,0.0,99,0.00,,,0.00,WeatherDisplay:10.37,2013-05-01 15:16:00,
2013-05-01 08:21:00,38.5,38.2,30.30,NNE,22,0.0,0.0,99,0.00,,,0.00,WeatherDisplay:10.37,2013-05-01 15:21:00,
2013-05-01 08:26:00,39.0,36.3,30.30,NNE,22,0.0,0.0,90,0.00,CLR,,0.00,WeatherDisplay:10.37,2013-05-01 15:26:00,
2013-05-01 08:31:00,39.7,37.0,30.30,NNE,22,0.0,0.0,90,0.00,CLR,,0.00,WeatherDisplay:10.37,2013-05-01 15:31:00,
2013-05-01 08:36:00,40.3,37.6,30.30,NNE,22,0.0,0.0,90,0.00,CLR,,0.00,WeatherDisplay:10.37,2013-05-01 15:36:00,
2013-05-01 08:41:00,40.8,38.1,30.30,NNE,22,0.0,0.0,90,0.00,CLR,,0.00,WeatherDisplay:10.37,2013-05-01 15:41:00,
2013-05-01 08:46:00,41.5,38.5,30.30,NNE,22,0.0,0.0,89,0.00,CLR,,0.00,WeatherDisplay:10.37,2013-05-01 15:46:00,
2013-05-01 08:51:00,39.9,36.7,30.30,NNE,22,0.0,0.0,88,0.00,CLR,,0.00,WeatherDisplay:10.37,2013-05-01 15:51:00,
2013-05-01 08:56:00,40.6,37.4,30.30,NNE,22,0.0,0.0,88,0.00,CLR,,0.00,WeatherDisplay:10.37,2013-05-01 15:56:00,
2013-05-01 09:01:00,41.5,38.0,30.30,NW,315,0.0,0.0,87,0.00,CLR,,0.00,WeatherDisplay:10.37,2013-05-01 16:01:00,
2013-05-01 09:06:00,42.1,38.2,30.30,NW,315,0.0,0.0,86,0.00,CLR,,0.00,WeatherDisplay:10.37,2013-05-01 16:06:00,
2013-05-01 09:11:00,42.6,38.4,30.30,NW,315,0.0,0.0,85,0.00,CLR,,0.00,WeatherDisplay:10.37,2013-05-01 16:11:00,
2013-05-01 09:16:00,43.5,38.7,30.29,NW,315,0.0,0.0,83,0.00,CLR,,0.00,WeatherDisplay:10.37,2013-05-01 16:16:00,
2013-05-01 09:21:00,44.2,39.1,30.29,NW,315,0.0,0.0,82,0.00,CLR,,0.00,WeatherDisplay:10.37,2013-05-01 16:21:00,
2013-05-01 09:26:00,44.8,39.3,30.30,West,270,0.0,0.0,81,0.00,CLR,,0.00,WeatherDisplay:10.37,2013-05-01 16:26:00,
2013-05-01 09:31:00,45.3,39.2,30.29,WNW,292,0.0,0.0,79,0.00,CLR,,0.00,WeatherDisplay:10.37,2013-05-01 16:31:00,
2013-05-01 09:36:00,46.0,39.6,30.30,WSW,248,0.0,0.0,78,0.00,CLR,,0.00,WeatherDisplay:10.37,2013-05-01 16:36:00,
2013-05-01 09:41:00,46.2,39.4,30.29,WSW,248,0.0,0.0,77,0.00,CLR,,0.00,WeatherDisplay:10.37,2013-05-01 16:41:00,
2013-05-01 09:46:00,46.8,39.9,30.29,WNW,292,0.0,0.0,77,0.00,CLR,,0.00,WeatherDisplay:10.37,2013-05-01 16:46:00,
2013-05-01 09:51:00,47.1,39.9,30.29,NW,315,0.0,0.0,76,0.00,CLR,,0.00,WeatherDisplay:10.37,2013-05-01 16:51:00,
2013-05-01 09:56:00,47.5,39.9,30.29,WNW,292,0.0,0.0,75,0.00,CLR,,0.00,WeatherDisplay:10.37,2013-05-01 16:56:00,
2013-05-01 10:01:00,48.0,39.8,30.29,SSW,202,0.0,0.0,73,0.00,CLR,,0.00,WeatherDisplay:10.37,2013-05-01 17:01:00,
2013-05-01 10:06:00,48.2,39.9,30.29,West,270,0.0,0.0,73,0.00,CLR,,0.00,WeatherDisplay:10.37,2013-05-01 17:06:00,
2013-05-01 10:11:00,48.6,39.6,30.29,NW,315,0.0,0.0,71,0.00,CLR,,0.00,WeatherDisplay:10.37,2013-05-01 17:11:00,
2013-05-01 10:16:00,49.1,39.7,30.29,SW,225,0.0,0.0,70,0.00,CLR,,0.00,WeatherDisplay:10.37,2013-05-01 17:16:00,
2013-05-01 10:22:00,49.3,39.2,30.29,North,0,0.0,0.0,68,0.00,CLR,,0.00,WeatherDisplay:10.37,2013-05-01 17:22:00,
2013-05-01 10:27:00,49.8,38.5,30.29,WNW,292,0.0,0.0,65,0.00,CLR,,0.00,WeatherDisplay:10.37,2013-05-01 17:27:00,
2013-05-01 10:32:00,50.2,36.8,30.29,NNE,22,0.0,0.0,60,0.00,CLR,,0.00,WeatherDisplay:10.37,2013-05-01 17:32:00,
2013-05-01 10:37:00,50.5,36.7,30.29,NW,315,2.3,2.3,59,0.00,CLR,,0.00,WeatherDisplay:10.37,2013-05-01 17:37:00,
2013-05-01 10:42:00,51.1,36.4,30.29,NNE,22,0.0,0.0,57,0.00,CLR,,0.00,WeatherDisplay:10.37,2013-05-01 17:42:00,
2013-05-01 10:47:00,51.4,35.8,30.29,North,0,0.0,0.0,55,0.00,CLR,,0.00,WeatherDisplay:10.37,2013-05-01 17:47:00,
2013-05-01 10:52:00,52.0,36.8,30.29,NNE,22,0.0,0.0,56,0.00,CLR,,0.00,WeatherDisplay:10.37,2013-05-01 17:52:00,
2013-05-01 10:57:00,52.2,36.0,30.30,NE,45,0.0,0.0,54,0.00,CLR,,0.00,WeatherDisplay:10.37,2013-05-01 17:57:00,
2013-05-01 11:02:00,52.3,35.2,30.30,WNW,292,0.0,0.0,52,0.00,CLR,,0.00,WeatherDisplay:10.37,2013-05-01 18:02:00,
2013-05-01 11:07:00,52.5,34.9,30.30,WNW,292,4.6,4.6,51,0.00,CLR,,0.00,WeatherDisplay:10.37,2013-05-01 18:07:00,
2013-05-01 11:12:00,52.7,34.6,30.31,NW,315,1.2,1.2,50,0.00,CLR,,0.00,WeatherDisplay:10.37,2013-05-01 18:12:00,
2013-05-01 11:17:00,52.9,35.2,30.31,NW,315,0.0,0.0,51,0.00,CLR,,0.00,WeatherDisplay:10.37,2013-05-01 18:17:00,
2013-05-01 11:22:00,53.2,34.6,30.31,WNW,292,0.0,0.0,49,0.00,CLR,,0.00,WeatherDisplay:10.37,2013-05-01 18:22:00,
2013-05-01 11:27:00,53.4,35.2,30.31,NNE,22,0.0,0.0,50,0.00,CLR,,0.00,WeatherDisplay:10.37,2013-05-01 18:27:00,
2013-05-01 11:32:00,53.6,34.4,30.31,NW,315,2.3,2.3,48,0.00,CLR,,0.00,WeatherDisplay:10.37,2013-05-01 18:32:00,
2013-05-01 11:37:00,54.0,35.2,30.30,NNW,338,0.0,0.0,49,0.00,CLR,,0.00,WeatherDisplay:10.37,2013-05-01 18:37:00,
2013-05-01 11:42:00,54.3,36.6,30.30,WSW,248,0.0,0.0,51,0.00,CLR,,0.00,WeatherDisplay:10.37,2013-05-01 18:42:00,
2013-05-01 11:47:00,54.7,36.4,30.30,NE,45,0.0,0.0,50,0.00,CLR,,0.00,WeatherDisplay:10.37,2013-05-01 18:47:00,
2013-05-01 11:52:00,55.0,36.2,30.30,NW,315,0.0,0.0,49,0.00,CLR,,0.00,WeatherDisplay:10.37,2013-05-01 18:52:00,
2013-05-01 11:57:00,55.0,36.7,30.30,ENE,68,0.0,0.0,50,0.00,CLR,,0.00,WeatherDisplay:10.37,2013-05-01 18:57:00,
2013-05-01 12:02:00,55.2,35.9,30.30,WNW,292,0.0,0.0,48,0.00,CLR,,0.00,WeatherDisplay:10.37,2013-05-01 19:02:00,
2013-05-01 12:07:00,55.4,34.9,30.30,NNW,338,1.2,1.2,46,0.00,CLR,,0.00,WeatherDisplay:10.37,2013-05-01 19:07:00,
2013-05-01 12:12:00,55.6,35.1,30.30,North,0,5.8,5.8,46,0.00,CLR,,0.00,WeatherDisplay:10.37,2013-05-01 19:12:00,
2013-05-01 12:17:00,55.9,34.3,30.30,NNW,338,0.0,0.0,44,0.00,CLR,,0.00,WeatherDisplay:10.37,2013-05-01 19:17:00,
2013-05-01 12:22:00,56.1,36.1,30.30,NE,45,0.0,0.0,47,0.00,CLR,,0.00,WeatherDisplay:10.37,2013-05-01 19:22:00,
2013-05-01 12:27:00,56.5,35.9,30.29,NNW,338,0.0,0.0,46,0.00,CLR,,0.00,WeatherDisplay:10.37,2013-05-01 19:27:00,
2013-05-01 12:32:00,56.8,36.3,30.29,WNW,292,0.0,0.0,46,0.00,CLR,,0.00,WeatherDisplay:10.37,2013-05-01 19:32:00,
2013-05-01 12:37:00,57.0,35.3,30.29,NW,315,0.0,0.0,44,0.00,CLR,,0.00,WeatherDisplay:10.37,2013-05-01 19:37:00,
2013-05-01 12:42:00,57.0,35.3,30.29,North,0,1.6,1.6,44,0.00,CLR,,0.00,WeatherDisplay:10.37,2013-05-01 19:42:00,
2013-05-01 12:47:00,57.4,35.6,30.29,NNW,338,1.6,1.6,44,0.00,CLR,,0.00,WeatherDisplay:10.37,2013-05-01 19:47:00,
2013-05-01 12:52:00,57.7,35.4,30.29,North,0,0.0,0.0,43,0.00,CLR,,0.00,WeatherDisplay:10.37,2013-05-01 19:52:00,
2013-05-01 12:57:00,57.9,36.7,30.28,ESE,112,0.0,0.0,45,0.00,CLR,,0.00,WeatherDisplay:10.37,2013-05-01 19:57:00,
2013-05-01 13:02:00,58.3,36.4,30.29,NNW,338,0.0,0.0,44,0.00,CLR,,0.00,WeatherDisplay:10.37,2013-05-01 20:02:00,
2013-05-01 13:07:00,58.6,36.2,30.29,NE,45,5.8,5.8,43,0.00,CLR,,0.00,WeatherDisplay:10.37,2013-05-01 20:07:00,
2013-05-01 13:12:00,58.8,36.4,30.28,WNW,292,5.8,5.8,43,0.00,CLR,,0.00,WeatherDisplay:10.37,2013-05-01 20:12:00,
2013-05-01 13:17:00,58.8,35.8,30.29,NW,315,5.8,5.8,42,0.00,CLR,,0.00,WeatherDisplay:10.37,2013-05-01 20:17:00,
2013-05-01 13:22:00,58.8,35.8,30.28,NNW,338,0.0,0.0,42,0.00,CLR,,0.00,WeatherDisplay:10.37,2013-05-01 20:22:00,
2013-05-01 13:27:00,58.8,36.4,30.28,NW,315,0.0,0.0,43,0.00,CLR,,0.00,WeatherDisplay:10.37,2013-05-01 20:27:00,
2013-05-01 13:32:00,59.5,37.0,30.28,NE,45,0.0,0.0,43,0.00,CLR,,0.00,WeatherDisplay:10.37,2013-05-01 20:32:00,
2013-05-01 13:37:00,59.5,34.5,30.28,NW,315,6.9,6.9,39,0.00,CLR,,0.00,WeatherDisplay:10.37,2013-05-01 20:37:00,
2013-05-01 13:42:00,59.5,34.5,30.28,NE,45,0.0,0.0,39,0.00,CLR,,0.00,WeatherDisplay:10.37,2013-05-01 20:42:00,
2013-05-01 13:47:00,59.7,35.3,30.29,NNW,338,5.8,5.8,40,0.00,CLR,,0.00,WeatherDisplay:10.37,2013-05-01 20:47:00,
2013-05-01 13:52:00,60.1,35.0,30.28,NNW,338,0.0,0.0,39,0.00,CLR,,0.00,WeatherDisplay:10.37,2013-05-01 20:52:00,
2013-05-01 13:57:00,60.4,34.7,30.29,WNW,292,1.2,1.2,38,0.00,CLR,,0.00,WeatherDisplay:10.37,2013-05-01 20:57:00,
2013-05-01 14:02:00,60.6,34.2,30.29,North,0,0.0,0.0,37,0.00,CLR,,0.00,WeatherDisplay:10.37,2013-05-01 21:02:00,
2013-05-01 14:07:00,60.6,33.5,30.28,NW,315,4.9,4.9,36,0.00,CLR,,0.00,WeatherDisplay:10.37,2013-05-01 21:07:00,
2013-05-01 14:12:00,60.6,34.2,30.28,West,270,0.0,0.0,37,0.00,CLR,,0.00,WeatherDisplay:10.37,2013-05-01 21:12:00,
2013-05-01 14:17:00,61.0,34.5,30.28,North,0,1.6,1.6,37,0.00,CLR,,0.00,WeatherDisplay:10.37,2013-05-01 21:17:00,
2013-05-01 14:22:00,61.0,35.2,30.28,WSW,248,3.5,3.5,38,0.00,CLR,,0.00,WeatherDisplay:10.37,2013-05-01 21:22:00,
2013-05-01 14:27:00,61.0,34.5,30.28,NW,315,5.8,5.8,37,0.00,CLR,,0.00,WeatherDisplay:10.37,2013-05-01 21:27:00,
2013-05-01 14:32:00,61.0,34.5,30.28,NW,315,4.0,4.0,37,0.00,CLR,,0.00,WeatherDisplay:10.37,2013-05-01 21:32:00,
2013-05-01 14:37:00,60.8,34.3,30.28,WNW,292,3.5,3.5,37,0.00,CLR,,0.00,WeatherDisplay:10.37,2013-05-01 21:37:00,
2013-05-01 14:42:00,60.8,35.0,30.28,WNW,292,0.0,0.0,38,0.00,CLR,,0.00,WeatherDisplay:10.37,2013-05-01 21:42:00,
2013-05-01 14:47:00,61.0,34.5,30.28,NW,315,0.0,0.0,37,0.00,CLR,,0.00,WeatherDisplay:10.37,2013-05-01 21:47:00,
2013-05-01 14:52:00,61.0,33.8,30.28,NW,315,0.0,0.0,36,0.00,CLR,,0.00,WeatherDisplay:10.37,2013-05-01 21:52:00,
2013-05-01 14:57:00,61.0,33.8,30.28,NW,315,0.0,0.0,36,0.00,CLR,,0.00,WeatherDisplay:10.37,2013-05-01 21:57:00,
2013-05-01 15:02:00,61.2,34.0,30.28,North,0,0.0,0.0,36,0.00,CLR,,0.00,WeatherDisplay:10.37,2013-05-01 22:02:00,
2013-05-01 15:07:00,61.3,33.4,30.28,NNW,338,7.4,7.4,35,0.00,CLR,,0.00,WeatherDisplay:10.37,2013-05-01 22:07:00,
2013-05-01 15:12:00,61.3,33.4,30.28,WNW,292,4.6,4.6,35,0.00,CLR,,0.00,WeatherDisplay:10.37,2013-05-01 22:12:00,
2013-05-01 15:17:00,61.7,34.5,30.28,NW,315,0.0,0.0,36,0.00,CLR,,0.00,WeatherDisplay:10.37,2013-05-01 22:17:00,
2013-05-01 15:22:00,61.9,33.9,30.27,West,270,0.0,0.0,35,0.00,CLR,,0.00,WeatherDisplay:10.37,2013-05-01 22:22:00,
2013-05-01 15:27:00,61.9,33.9,30.27,NNE,22,2.3,2.3,35,0.00,CLR,,0.00,WeatherDisplay:10.37,2013-05-01 22:27:00,
2013-05-01 15:32:00,61.9,33.2,30.27,NNW,338,0.0,0.0,34,0.00,CLR,,0.00,WeatherDisplay:10.37,2013-05-01 22:32:00,
2013-05-01 15:37:00,61.9,33.2,30.27,NW,315,0.0,0.0,34,0.00,CLR,,0.00,WeatherDisplay:10.37,2013-05-01 22:37:00,
2013-05-01 15:42:00,61.9,33.2,30.27,NNE,22,2.3,2.3,34,0.00,CLR,,0.00,WeatherDisplay:10.37,2013-05-01 22:42:00,
2013-05-01 15:47:00,61.9,33.2,30.27,North,0,0.0,0.0,34,0.00,CLR,,0.00,WeatherDisplay:10.37,2013-05-01 22:47:00,
2013-05-01 15:52:00,62.1,33.3,30.27,NNE,22,0.0,0.0,34,0.00,CLR,,0.00,WeatherDisplay:10.37,2013-05-01 22:52:00,
2013-05-01 15:57:00,62.4,33.7,30.27,WNW,292,3.5,4.0,34,0.00,CLR,,0.00,WeatherDisplay:10.37,2013-05-01 22:57:00,
2013-05-01 16:02:00,62.4,33.7,30.27,NNW,338,0.0,0.0,34,0.00,CLR,,0.00,WeatherDisplay:10.37,2013-05-01 23:02:00,
2013-05-01 16:07:00,63.0,34.1,30.27,WNW,292,3.5,3.5,34,0.00,CLR,,0.00,WeatherDisplay:10.37,2013-05-01 23:07:00,
2013-05-01 16:12:00,63.1,34.3,30.27,ENE,68,0.0,0.0,34,0.00,CLR,,0.00,WeatherDisplay:10.37,2013-05-01 23:12:00,
2013-05-01 16:17:00,63.0,34.1,30.28,NNE,22,0.0,0.0,34,0.00,CLR,,0.00,WeatherDisplay:10.37,2013-05-01 23:17:00,
2013-05-01 16:22:00,63.1,34.3,30.28,West,270,2.3,2.3,34,0.00,CLR,,0.00,WeatherDisplay:10.37,2013-05-01 23:22:00,
2013-05-01 16:27:00,63.1,34.3,30.27,NW,315,2.3,2.3,34,0.00,CLR,,0.00,WeatherDisplay:10.37,2013-05-01 23:27:00,
2013-05-01 16:32:00,63.3,34.4,30.27,NNW,338,0.0,0.0,34,0.00,CLR,,0.00,WeatherDisplay:10.37,2013-05-01 23:32:00,
2013-05-01 16:37:00,63.5,34.6,30.27,WNW,292,0.0,0.0,34,0.00,CLR,,0.00,WeatherDisplay:10.37,2013-05-01 23:37:00,
2013-05-01 16:42:00,63.7,34.8,30.27,NNW,338,0.0,0.0,34,0.00,CLR,,0.00,WeatherDisplay:10.37,2013-05-01 23:42:00,
2013-05-01 16:47:00,64.0,35.1,30.27,NE,45,0.0,0.0,34,0.00,CLR,,0.00,WeatherDisplay:10.37,2013-05-01 23:47:00,
2013-05-01 16:52:00,64.0,34.3,30.27,NE,45,5.8,5.8,33,0.00,CLR,,0.00,WeatherDisplay:10.37,2013-05-01 23:52:00,
2013-05-01 16:57:00,64.0,34.3,30.27,WNW,292,0.0,0.0,33,0.00,CLR,,0.00,WeatherDisplay:10.37,2013-05-01 23:57:00,
2013-05-01 17:02:00,64.0,34.3,30.27,NNE,22,0.0,0.0,33,0.00,CLR,,0.00,WeatherDisplay:10.37,2013-05-02 00:02:00,
2013-05-01 17:07:00,64.0,34.3,30.26,North,0,0.0,0.0,33,0.00,CLR,,0.00,WeatherDisplay:10.37,2013-05-02 00:07:00,
2013-05-01 17:12:00,64.2,35.2,30.26,WNW,292,0.0,0.0,34,0.00,CLR,,0.00,WeatherDisplay:10.37,2013-05-02 00:12:00,
2013-05-01 17:17:00,64.4,34.6,30.26,NE,45,0.0,0.0,33,0.00,CLR,,0.00,WeatherDisplay:10.37,2013-05-02 00:17:00,
2013-05-01 17:22:00,64.6,35.6,30.26,WNW,292,2.3,2.3,34,0.00,CLR,,0.00,WeatherDisplay:10.37,2013-05-02 00:22:00,
2013-05-01 17:27:00,64.8,35.7,30.26,NNW,338,0.0,0.0,34,0.00,CLR,,0.00,WeatherDisplay:10.37,2013-05-02 00:27:00,
2013-05-01 17:32:00,64.6,34.8,30.26,North,0,0.0,0.0,33,0.00,CLR,,0.00,WeatherDisplay:10.37,2013-05-02 00:32:00,
2013-05-01 17:37:00,64.8,35.7,30.26,NE,45,3.5,3.5,34,0.00,CLR,,0.00,WeatherDisplay:10.37,2013-05-02 00:37:00,
2013-05-01 17:42:00,64.8,35.0,30.26,NNW,338,0.0,0.0,33,0.00,CLR,,0.00,WeatherDisplay:10.37,2013-05-02 00:42:00,
2013-05-01 17:47:00,64.8,35.0,30.26,NNW,338,0.0,0.0,33,0.00,CLR,,0.00,WeatherDisplay:10.37,2013-05-02 00:47:00,
2013-05-01 17:52:00,64.4,34.6,30.26,WSW,248,3.5,3.5,33,0.00,CLR,,0.00,WeatherDisplay:10.37,2013-05-02 00:52:00,
2013-05-01 17:57:00,64.2,34.5,30.26,North,0,0.0,0.0,33,0.00,CLR,,0.00,WeatherDisplay:10.37,2013-05-02 00:57:00,
2013-05-01 18:02:00,64.0,35.1,30.26,NW,315,0.0,0.0,34,0.00,CLR,,0.00,WeatherDisplay:10.37,2013-05-02 01:02:00,
2013-05-01 18:07:00,64.2,35.2,30.26,West,270,0.0,0.0,34,0.00,CLR,,0.00,WeatherDisplay:10.37,2013-05-02 01:07:00,
2013-05-01 18:12:00,64.2,35.2,30.26,NW,315,0.0,0.0,34,0.00,CLR,,0.00,WeatherDisplay:10.37,2013-05-02 01:12:00,
2013-05-01 18:17:00,64.0,35.1,30.26,NNE,22,5.1,5.1,34,0.00,CLR,,0.00,WeatherDisplay:10.37,2013-05-02 01:17:00,
2013-05-01 18:22:00,63.7,34.8,30.26,WNW,292,3.5,3.5,34,0.00,CLR,,0.00,WeatherDisplay:10.37,2013-05-02 01:22:00,
2013-05-01 18:27:00,63.7,34.8,30.26,NW,316,0.0,0.0,34,0.00,CLR,,0.00,WeatherDisplay:10.37,2013-05-02 01:27:00,
2013-05-01 18:32:00,63.5,34.6,30.26,NNW,338,0.0,0.0,34,0.00,CLR,,0.00,WeatherDisplay:10.37,2013-05-02 01:32:00,
2013-05-01 18:37:00,63.1,34.3,30.26,NNW,338,2.3,2.3,34,0.00,CLR,,0.00,WeatherDisplay:10.37,2013-05-02 01:37:00,
2013-05-01 18:42:00,63.0,34.1,30.26,WNW,292,5.1,5.1,34,0.00,CLR,,0.00,WeatherDisplay:10.37,2013-05-02 01:42:00,
2013-05-01 18:47:00,62.8,34.0,30.26,NNE,22,2.0,2.0,34,0.00,CLR,,0.00,WeatherDisplay:10.37,2013-05-02 01:47:00,
2013-05-01 18:52:00,62.4,34.4,30.26,WNW,292,4.6,4.6,35,0.00,CLR,,0.00,WeatherDisplay:10.37,2013-05-02 01:52:00,
2013-05-01 18:57:00,62.4,35.1,30.25,North,0,0.0,0.0,36,0.00,CLR,,0.00,WeatherDisplay:10.37,2013-05-02 01:57:00,
2013-05-01 19:02:00,62.4,35.8,30.25,North,0,0.0,0.0,37,0.00,CLR,,0.00,WeatherDisplay:10.37,2013-05-02 02:02:00,
2013-05-01 19:07:00,62.2,35.6,30.25,NNE,22,0.0,0.0,37,0.00,CLR,,0.00,WeatherDisplay:10.37,2013-05-02 02:07:00,
2013-05-01 19:12:00,61.9,35.3,30.25,NNE,22,0.0,0.0,37,0.00,CLR,,0.00,WeatherDisplay:10.37,2013-05-02 02:12:00,
2013-05-01 19:17:00,61.2,34.7,30.26,NNW,338,0.0,0.0,37,0.00,CLR,,0.00,WeatherDisplay:10.37,2013-05-02 02:17:00,
2013-05-01 19:22:00,60.6,34.9,30.25,NW,315,1.2,1.2,38,0.00,CLR,,0.00,WeatherDisplay:10.37,2013-05-02 02:22:00,
2013-05-01 19:27:00,60.3,35.2,30.25,WNW,292,0.0,0.0,39,0.00,CLR,,0.00,WeatherDisplay:10.37,2013-05-02 02:27:00,
2013-05-01 19:32:00,59.7,35.3,30.26,NW,315,0.0,0.0,40,0.00,CLR,,0.00,WeatherDisplay:10.37,2013-05-02 02:32:00,
2013-05-01 19:37:00,59.5,35.2,30.26,NW,315,0.0,0.0,40,0.00,CLR,,0.00,WeatherDisplay:10.37,2013-05-02 02:37:00,
2013-05-01 19:42:00,58.8,35.2,30.26,NW,315,0.0,0.0,41,0.00,CLR,,0.00,WeatherDisplay:10.37,2013-05-02 02:42:00,
2013-05-01 19:47:00,58.6,35.6,30.26,NW,315,0.0,0.0,42,0.00,CLR,,0.00,WeatherDisplay:10.37,2013-05-02 02:47:00,
2013-05-01 19:52:00,58.1,35.7,30.26,NW,315,0.0,0.0,43,0.00,CLR,,0.00,WeatherDisplay:10.37,2013-05-02 02:52:00,
2013-05-01 19:57:00,57.6,35.2,30.26,NW,315,0.0,0.0,43,0.00,CLR,,0.00,WeatherDisplay:10.37,2013-05-02 02:57:00,
2013-05-01 20:02:00,56.7,35.5,30.26,NW,315,0.0,0.0,45,0.00,CLR,,0.00,WeatherDisplay:10.37,2013-05-02 03:02:00,
2013-05-01 20:07:00,56.1,36.1,30.26,NW,315,0.0,0.0,47,0.00,CLR,,0.00,WeatherDisplay:10.37,2013-05-02 03:07:00,
2013-05-01 20:12:00,55.6,36.2,30.26,NW,315,0.0,0.0,48,0.00,CLR,,0.00,WeatherDisplay:10.37,2013-05-02 03:12:00,
2013-05-01 20:17:00,54.7,35.4,30.26,NW,315,0.0,0.0,48,0.00,CLR,,0.00,WeatherDisplay:10.37,2013-05-02 03:17:00,
2013-05-01 20:22:00,54.1,35.4,30.26,NW,315,0.0,0.0,49,0.00,CLR,,0.00,WeatherDisplay:10.37,2013-05-02 03:22:00,
2013-05-01 20:27:00,53.8,35.6,30.26,NW,315,0.0,0.0,50,0.00,CLR,,0.00,WeatherDisplay:10.37,2013-05-02 03:27:00,
2013-05-01 20:32:00,52.9,35.2,30.26,NW,315,0.0,0.0,51,0.00,CLR,,0.00,WeatherDisplay:10.37,2013-05-02 03:32:00,
2013-05-01 20:37:00,52.5,35.4,30.26,NW,315,0.0,0.0,52,0.00,CLR,,0.00,WeatherDisplay:10.37,2013-05-02 03:37:00,
2013-05-01 20:42:00,52.2,35.5,30.26,NW,315,0.0,0.0,53,0.00,CLR,,0.00,WeatherDisplay:10.37,2013-05-02 03:42:00,
2013-05-01 20:47:00,51.6,35.0,30.26,NW,315,0.0,0.0,53,0.00,CLR,,0.00,WeatherDisplay:10.37,2013-05-02 03:47:00,
2013-05-01 20:52:00,51.4,35.3,30.27,NW,315,0.0,0.0,54,0.00,CLR,,0.00,WeatherDisplay:10.37,2013-05-02 03:52:00,
2013-05-01 20:57:00,50.9,34.8,30.27,NW,315,0.0,0.0,54,0.00,CLR,,0.00,WeatherDisplay:10.37,2013-05-02 03:57:00,
2013-05-01 21:01:00,50.7,35.1,30.27,NW,315,0.0,0.0,55,0.00,CLR,,0.00,WeatherDisplay:10.37,2013-05-02 04:01:00,
2013-05-01 21:02:00,50.5,35.0,30.27,NW,315,0.0,0.0,55,0.00,CLR,,0.00,WeatherDisplay:10.37,2013-05-02 04:02:00,
2013-05-01 21:04:00,50.5,35.0,30.27,NW,315,0.0,0.0,55,0.00,CLR,,0.00,WeatherDisplay:10.37,2013-05-02 04:04:00,
2013-05-01 21:08:00,50.4,35.2,30.27,West,270,0.0,0.0,56,0.00,CLR,,0.00,WeatherDisplay:10.37,2013-05-02 04:08:00,
2013-05-01 21:11:00,50.2,35.5,30.27,West,270,0.0,0.0,57,0.00,CLR,,0.00,WeatherDisplay:10.37,2013-05-02 04:11:00,
2013-05-01 21:16:00,49.8,35.2,30.27,West,270,0.0,0.0,57,0.00,CLR,,0.00,WeatherDisplay:10.37,2013-05-02 04:16:00,
2013-05-01 21:21:00,49.8,35.6,30.27,West,270,0.0,0.0,58,0.00,CLR,,0.00,WeatherDisplay:10.37,2013-05-02 04:21:00,
2013-05-01 21:26:00,49.6,35.5,30.27,West,270,0.0,0.0,58,0.00,CLR,,0.00,WeatherDisplay:10.37,2013-05-02 04:26:00,
2013-05-01 21:31:00,49.3,35.5,30.27,WSW,248,0.0,0.0,59,0.00,CLR,,0.00,WeatherDisplay:10.37,2013-05-02 04:31:00,
2013-05-01 21:36:00,49.3,36.0,30.27,WSW,248,0.0,0.0,60,0.00,CLR,,0.00,WeatherDisplay:10.37,2013-05-02 04:36:00,
2013-05-01 21:41:00,49.1,35.8,30.27,WSW,248,0.0,0.0,60,0.00,CLR,,0.00,WeatherDisplay:10.37,2013-05-02 04:41:00,
2013-05-01 21:46:00,49.1,35.8,30.28,WSW,248,0.0,0.0,60,0.00,CLR,,0.00,WeatherDisplay:10.37,2013-05-02 04:46:00,
2013-05-01 21:51:00,48.9,35.6,30.28,WSW,248,0.0,0.0,60,0.00,CLR,,0.00,WeatherDisplay:10.37,2013-05-02 04:51:00,
2013-05-01 21:56:00,48.7,35.9,30.28,SSW,202,0.0,0.0,61,0.00,CLR,,0.00,WeatherDisplay:10.37,2013-05-02 04:56:00,
2013-05-01 22:01:00,48.7,35.9,30.28,SSW,202,0.0,0.0,61,0.00,CLR,,0.00,WeatherDisplay:10.37,2013-05-02 05:01:00,
2013-05-01 22:06:00,48.7,35.9,30.28,SSW,202,0.0,0.0,61,0.00,CLR,,0.00,WeatherDisplay:10.37,2013-05-02 05:06:00,
2013-05-01 22:11:00,48.4,35.5,30.28,SSW,202,0.0,0.0,61,0.00,CLR,,0.00,WeatherDisplay:10.37,2013-05-02 05:11:00,
2013-05-01 22:16:00,48.4,36.0,30.28,SSW,202,0.0,0.0,62,0.00,CLR,,0.00,WeatherDisplay:10.37,2013-05-02 05:16:00,
2013-05-01 22:21:00,48.2,35.4,30.28,SSW,202,0.0,0.0,61,0.00,CLR,,0.00,WeatherDisplay:10.37,2013-05-02 05:21:00,
2013-05-01 22:26:00,48.2,35.8,30.28,SSW,202,0.0,0.0,62,0.00,CLR,,0.00,WeatherDisplay:10.37,2013-05-02 05:26:00,
2013-05-01 22:31:00,48.0,35.6,30.27,SSW,202,0.0,0.0,62,0.00,CLR,,0.00,WeatherDisplay:10.37,2013-05-02 05:31:00,
2013-05-01 22:36:00,48.0,35.6,30.28,SSW,202,0.0,0.0,62,0.00,CLR,,0.00,WeatherDisplay:10.37,2013-05-02 05:36:00,
2013-05-01 22:41:00,48.0,35.6,30.27,South,180,0.0,0.0,62,0.00,CLR,,0.00,WeatherDisplay:10.37,2013-05-02 05:41:00,
2013-05-01 22:46:00,48.0,35.6,30.28,South,180,0.0,0.0,62,0.00,CLR,,0.00,WeatherDisplay:10.37,2013-05-02 05:46:00,
2013-05-01 22:51:00,48.4,36.0,30.28,SW,225,0.0,0.0,62,0.00,CLR,,0.00,WeatherDisplay:10.37,2013-05-02 05:51:00,
2013-05-01 22:56:00,48.4,36.0,30.28,SW,225,0.0,0.0,62,0.00,CLR,,0.00,WeatherDisplay:10.37,2013-05-02 05:56:00,
2013-05-01 23:01:00,48.4,36.0,30.27,SW,225,0.0,0.0,62,0.00,CLR,,0.00,WeatherDisplay:10.37,2013-05-02 06:01:00,
2013-05-01 23:06:00,48.2,35.8,30.27,ENE,68,0.0,0.0,62,0.00,CLR,,0.00,WeatherDisplay:10.37,2013-05-02 06:06:00,
2013-05-01 23:11:00,48.2,35.8,30.28,NNW,338,0.0,0.0,62,0.00,CLR,,0.00,WeatherDisplay:10.37,2013-05-02 06:11:00,
2013-05-01 23:16:00,48.2,35.8,30.27,NNW,338,0.0,0.0,62,0.00,CLR,,0.00,WeatherDisplay:10.37,2013-05-02 06:16:00,
2013-05-01 23:21:00,48.0,35.6,30.27,NNW,338,0.0,0.0,62,0.00,CLR,,0.00,WeatherDisplay:10.37,2013-05-02 06:21:00,
2013-05-01 23:26:00,48.0,35.6,30.27,NW,315,0.0,0.0,62,0.00,CLR,,0.00,WeatherDisplay:10.37,2013-05-02 06:26:00,
2013-05-01 23:31:00,48.0,35.6,30.27,WNW,292,0.0,0.0,62,0.00,CLR,,0.00,WeatherDisplay:10.37,2013-05-02 06:31:00,
2013-05-01 23:36:00,48.0,35.6,30.27,West,270,0.0,0.0,62,0.00,CLR,,0.00,WeatherDisplay:10.37,2013-05-02 06:36:00,
2013-05-01 23:41:00,48.0,35.6,30.27,North,0,0.0,0.0,62,0.00,CLR,,0.00,WeatherDisplay:10.37,2013-05-02 06:41:00,
2013-05-01 23:46:00,48.0,35.6,30.27,North,0,0.0,0.0,62,0.00,CLR,,0.00,WeatherDisplay:10.37,2013-05-02 06:46:00,
2013-05-01 23:51:00,48.0,35.6,30.27,East,90,0.0,0.0,62,0.00,CLR,,0.00,WeatherDisplay:10.37,2013-05-02 06:51:00,
2013-05-01 23:56:00,48.0,35.6,30.27,East,90,0.0,0.0,62,0.00,CLR,,0.00,WeatherDisplay:10.37,2013-05-02 06:56:00,